Regional Weather Roundup
Issued by NWS

Home | Current Version | Previous Version | Text Only | Print | Product List | Glossary Off
Versions: 1 2 3 4 5 6 7 8 9 10 11 12 13 14 15 16 17 18 19 20 21 22 23 24 25 26 27 28 29 30 31 32 33 34 35 36 37 38 39 40 41 42 43 44 45 46 47 48 49 50

000
ASUS43 KIND 231859
RWRIN

WEATHER ROUNDUP FOR INDIANA
NATIONAL WEATHER SERVICE INDIANAPOLIS IN
200 PM EST THU NOV 23 2017

NOTE: "FAIR" INDICATES FEW OR NO CLOUDS BELOW 12,000 FEET WITH NO
SIGNIFICANT WEATHER AND/OR OBSTRUCTIONS TO VISIBILITY.

* - STATION DOES NOT REPORT WEATHER SUCH AS PRECIPITATION OR FOG.

+ - STATION NOT QUALITY CONTROLLED BY THE NATIONAL WEATHER SERVICE.
    USE DATA WITH CAUTION...ESPECIALLY DEWPOINT AND RELATIVE
    HUMIDITY OBSERVATIONS.

INZ001>003-010>013-019-020-232000-
NORTHWEST INDIANA

CITY           SKY/WX    TMP DP  RH WIND       PRES   REMARKS
GARY /AIRPORT/ SUNNY     46  21  36 SW12G25   29.95F
KNOX *+        SUNNY     43  27  52 SW12      29.97F
LA PORTE +     SUNNY     42  24  49 W13G18    29.96F
MICHIGAN CITY+ SUNNY     45  23  42 SW12      29.96S
MONTICELLO +   SUNNY     43  22  43 SW12      29.98F
RENSSELAER +   SUNNY     45  19  36 S15       29.96F

$$

LMZ046-743>745-232000-
SOUTHERN LAKE MICHIGAN

STATION/POSITION TIME  TEMP    WIND        PRES    WAVE
                       AIR SEA DIR/SP/G            HT
                 (UTC) (F)     (DEG/KT/KT) (MB)    (FT)
BURNS HARBOR     1840   44     200/ 11/ 16 1014.6F
MICHIGAN CITY    1830   42     170/ 11/ 13   N/A

$$

INZ004-005-014>016-021>024-232000-
NORTH CENTRAL INDIANA

CITY           SKY/WX    TMP DP  RH WIND       PRES   REMARKS
GOSHEN         SUNNY     41  21  44 SW13      29.97F
PERU/GRISSOM   SUNNY     42  25  50 SW12      29.99F
SOUTH BEND     SUNNY     42  24  49 SW13      29.97F
WARSAW +       SUNNY     41  23  48 SW5       29.99S

$$

INZ006>009-017-018-025>027-232000-
NORTHEAST INDIANA

CITY           SKY/WX    TMP DP  RH WIND       PRES   REMARKS
AUBURN +       PTSUNNY   39  23  52 SW7       30.00S WCI  34
FORT WAYNE     PTSUNNY   40  25  55 SW15      30.00F WCI  32
KENDALLVILLE + CLOUDY    38  23  54 SW12      29.98F WCI  31

$$

INZ028-029-035-036-043>045-051>053-232000-
WEST CENTRAL INDIANA

CITY           SKY/WX    TMP DP  RH WIND       PRES   REMARKS
CRAWFORDSVL +  SUNNY     41  25  53 S10       30.00F
GREENCASTLE +  SUNNY     43  21  42 S7        30.03F
LAFAYETTE      SUNNY     43  24  47 S8        30.00F
TERRE HAUTE    SUNNY     43  24  47 S10       30.03F

$$

INZ030>032-037>040-046>048-054>057-064-065-232000-
CENTRAL INDIANA

CITY           SKY/WX    TMP DP  RH WIND       PRES   REMARKS
COLUMBUS       MOSUNNY   41  21  45 S6        30.06F
FRANKFORT +    MOSUNNY   46  27  48 SW12      30.01F
GREENWOOD *+   SUNNY     47  24  41 SW8       30.04F
INDIANAPOLIS   MOSUNNY   44  20  38 S8        30.03F
-EAGLE CREEK   SUNNY     44  21  40 SW8       30.02F
KOKOMO +       SUNNY     42  24  49 S14       30.00F
MT COMFORT *+  MOSUNNY   43  27  52 S9        30.03F
SHELBYVILLE    SUNNY     45  24  43 SW9       30.04F

$$

INZ033-034-041-042-049-050-058-059-232000-
EAST CENTRAL INDIANA

CITY           SKY/WX    TMP DP  RH WIND       PRES   REMARKS
MUNCIE         SUNNY     42  23  46 SW9G16    30.01F
RICHMOND +     CLOUDY    37  27  65 S7        30.05F WCI  32

$$

INZ060-061-067>069-081>083-085>088-232000-
SOUTHWEST INDIANA

CITY           SKY/WX    TMP DP  RH WIND       PRES   REMARKS
EVANSVILLE     LGT RAIN  46  22  38 S8        30.07F
HUNTINGBURG +  MOSUNNY   46  26  45 SW5       30.07F

$$

INZ062-063-066-070>080-084-089>092-232000-
SOUTH CENTRAL AND SOUTHEAST INDIANA

CITY           SKY/WX    TMP DP  RH WIND       PRES   REMARKS
BLOOMINGTON    PTSUNNY   44  19  36 SW8       30.04F
MADISON *+     PTSUNNY   45  23  42 SW3       30.07F

$$





USA.gov is the U.S. government's official web portal to all federal, state and local government web resources and services.